User: anonymous   Login
Location: Unspecified
(0.0000°N, 0.0000°E)
Time: 20:02:10
(UTC+00:00)
Language:

DELFI-N3XT - Orbit

View from above orbital plane
View from above orbital plane
View from above satellite
View from above satellite

Ground track
Ground track

The orbit data is extracted from the following two-line orbital elements,

1 39420U 13066E   17144.94621348 +.00000261 +00000-0 +53750-4 0  9991
2 39420 097.6541 151.4912 0139738 097.1328 264.5787 14.61838004186971
Epoch (UTC): 24 May 2017 22:42:32
Eccentricity: 0.0139738
inclination: 97.6541°
perigee height: 588 km
apogee height: 786 km
right ascension of ascending node: 151.4912°
argument of perigee: 97.1328°
revolutions per day: 14.61838004
mean anomaly at epoch: 264.5787°
orbit number at epoch: 18697

The dashed part of the orbit path shows where the satellite is in the earth's shadow,  

DLR